Weather History for Hatteras, NC

Change the Weather History Date:

Sunday, August 19, 2012

  Actual Average Record
Temperature  
Mean Temperature 82 °F 78 °F  
Max Temperature 88 °F 84 °F 91 °F (1987)
Min Temperature 75 °F 73 °F 64 °F (1881)
Degree Days  
Heating Degree Days 0 0  
Month to date heating degree days 0 0  
Since 1 June heating degree days 0 3  
Since 1 July heating degree days 0 0  
Cooling Degree Days 17 13  
Month to date cooling degree days 299 264  
Year to date cooling degree days 1480 1152  
Since 1 June cooling degree days 1155 1009  
Growing Degree Days 30 (Base 50)    
Moisture  
Dew Point 73 °F    
Average Humidity 80    
Maximum Humidity 94    
Minimum Humidity 65    
Precipitation  
Precipitation 0.32 in 0.22 in 3.51 in (1981)
Month to date precipitation 3.82 4.01  
Year to date precipitation 34.72 34.27  
Snow  
Snow 0.00 in - - ()
Month to date snowfall 0.0  
Since 1 July snowfall 0.0  
Snow Depth 0.00 in    
Sea Level Pressure  
Sea Level Pressure 29.87 in    
Wind  
Wind Speed 6 mph (ESE)    
Max Wind Speed 17 mph    
Max Gust Speed 25 mph    
Visibility 8 miles    
Events Rain    
T = Trace of Precipitation, MM = Missing Value Source: NWS Daily Summary

Daily Weather History Graph

Daily Weather History Graph

Search for Another Location

Airport:

Trip Planner

Search our weather history database for the weather conditions in past years. The results will help you decide how hot, cold, wet, or windy it might be!

Date:

Astronomy

Aug. 19, 2012 Rise Set
Actual Time 6:25 AM EDT 7:45 PM EDT
Civil Twilight 5:58 AM EDT 8:12 PM EDT
Nautical Twilight 5:27 AM EDT 8:44 PM EDT
Astronomical Twilight 4:53 AM EDT 9:17 PM EDT
Moon 8:29 AM EDT (8/19) 8:42 PM EDT (8/19)
Length of Visible Light 14h 13m
Length of Day
13h 20m
Waxing Crescent, 5% of the Moon is Illuminated
Aug 19
Waxing Crescent
Aug 24
First Quarter
Aug 31
Full
Sep 8
Last Quarter
Sep 15
New

Hourly Weather History & Observations

Time (EDT) Temp. Heat Index Dew Point Humidity Pressure Visibility Wind Dir Wind Speed Gust Speed Precip Events Conditions
12:51 AM 77.0 °F - 73.0 °F 88% 29.90 in 10.0 mi ENE 3.5 mph - N/A   Clear
1:51 AM 75.9 °F - 73.0 °F 91% 29.90 in 10.0 mi ENE 4.6 mph - N/A   Clear
2:51 AM 77.0 °F - 73.0 °F 88% 29.90 in 5.0 mi ENE 3.5 mph - 0.03 in Rain Rain
3:51 AM 77.0 °F - 73.0 °F 88% 29.89 in 8.0 mi ENE 3.5 mph - 0.00 in   Clear
4:51 AM 77.0 °F - 73.9 °F 90% 29.88 in 8.0 mi ENE 3.5 mph - 0.01 in   Mostly Cloudy
5:51 AM 75.9 °F - 73.0 °F 91% 29.88 in 6.0 mi ENE 3.5 mph - N/A   Clear
6:51 AM 77.0 °F - 73.0 °F 88% 29.88 in 7.0 mi ENE 5.8 mph - N/A   Clear
7:51 AM 79.0 °F - 75.0 °F 88% 29.89 in 8.0 mi ENE 3.5 mph - N/A   Partly Cloudy
8:51 AM 81.0 °F 86.7 °F 75.0 °F 82% 29.89 in 10.0 mi East 5.8 mph - N/A   Clear
9:23 AM 82.4 °F 89.5 °F 75.2 °F 79% 29.89 in 10.0 mi ESE 9.2 mph - N/A   Mostly Cloudy
9:32 AM 82.4 °F 89.5 °F 75.2 °F 79% 29.90 in 10.0 mi ESE 8.1 mph - N/A   Scattered Clouds
9:51 AM 84.0 °F 91.9 °F 75.0 °F 74% 29.90 in 10.0 mi ESE 8.1 mph - N/A   Partly Cloudy
10:51 AM 84.9 °F 94.1 °F 75.9 °F 74% 29.90 in 10.0 mi ESE 8.1 mph - N/A   Clear
11:51 AM 86.0 °F 96.0 °F 75.9 °F 72% 29.88 in 10.0 mi SE 5.8 mph - N/A   Clear
12:51 PM 84.9 °F 92.1 °F 73.9 °F 69% 29.86 in 10.0 mi South 5.8 mph - N/A   Clear
1:51 PM 86.0 °F 93.0 °F 73.0 °F 65% 29.86 in 10.0 mi SSE 5.8 mph - N/A   Clear
2:51 PM 84.9 °F 94.1 °F 75.9 °F 74% 29.86 in 10.0 mi SW 5.8 mph - N/A   Partly Cloudy
3:51 PM 82.9 °F 90.2 °F 75.0 °F 77% 29.86 in 10.0 mi WSW 6.9 mph - N/A   Mostly Cloudy
4:11 PM 77.0 °F - 71.6 °F 83% 29.86 in 9.0 mi WNW 13.8 mph 25.3 mph N/A   Mostly Cloudy
4:33 PM 75.2 °F - 71.6 °F 89% 29.86 in 10.0 mi NW 9.2 mph 20.7 mph 0.00 in   Overcast
4:51 PM 75.9 °F - 72.0 °F 87% 29.86 in 5.0 mi NNW 9.2 mph - 0.01 in Rain Light Rain
5:20 PM 75.2 °F - 71.6 °F 89% 29.87 in 1.8 mi NNW 8.1 mph - 0.06 in Rain Heavy Rain
5:37 PM 75.2 °F - 71.6 °F 89% 29.86 in 1.0 mi Variable 3.5 mph - 0.17 in Rain Heavy Rain
5:42 PM 75.2 °F - 71.6 °F 89% 29.87 in 2.0 mi Variable 3.5 mph - 0.19 in Rain Rain
5:51 PM 75.0 °F - 72.0 °F 90% 29.86 in 5.0 mi Calm Calm - 0.20 in Rain Light Rain
6:51 PM 75.9 °F - 73.0 °F 91% 29.85 in 10.0 mi East 3.5 mph - 0.03 in Rain Light Rain
7:51 PM 75.0 °F - 72.0 °F 90% 29.83 in 10.0 mi East 4.6 mph - 0.04 in   Scattered Clouds
8:51 PM 75.9 °F - 73.0 °F 91% 29.84 in 10.0 mi SE 8.1 mph - 0.00 in Rain Light Rain
9:51 PM 77.0 °F - 73.9 °F 90% 29.84 in 10.0 mi SE 6.9 mph - 0.00 in   Clear
10:51 PM 78.1 °F - 73.0 °F 84% 29.85 in 10.0 mi SSW 11.5 mph - N/A   Clear
11:51 PM 78.1 °F - 71.1 °F 79% 29.85 in 10.0 mi WSW 11.5 mph - N/A   Partly Cloudy